Championnats du Monde UCI Gran Fondo CLM/Time Trial - 24/08/2017

M 55/59

52 participants classés


Retour au Sommaire - Signaler une erreur - Faire défiler





1 2 /fin /tout

page suivante ->

Pl Do. Nom - Surname Prénom - Name S-Cat Club - Team TEMPS - Time PAYS
1 379 TYE KEVIN M 55/59   00:31:33 UNITED KINGDOM
2 396 MCMURRAY JIM M 55/59   00:31:57 NEW ZEALAND
3 388 ABEN PIETER M 55/59   00:32:08 NETHERLANDS
4 364 BUBEN DZMITRY M 55/59   00:32:32 BELARUS
5 346 BODIN JAN EGIL M 55/59   00:32:33 NORWAY
6 382 VAAL MICHIEL M 55/59 Team Bottrill / HSS Hire 00:32:40 UNITED KINGDOM
7 393 SIE SERGE M 55/59 LA TRONCHE VELO SPORT 00:32:50 FRANCE
8 359 FLOGNFELT TOMMY M 55/59   00:32:54 SWEDEN
9 344 GORDIN WILLIAM M 55/59   00:33:08 AUSTRALIA
10 361 KLÖCZL GABOR M 55/59   00:33:09 DENMARK
11 387 GARCIA LANDA LUIS M 55/59 CC SABIÑÁNIGO--AACC KAPELMUUR 00:33:20 SPAIN
12 350 PERRY TIMOTHY M 55/59   00:33:32 UNITED STATES
13 343 BODSON CHRISTIAN M 55/59   00:33:53 BELGIUM
14 366 WILLIAMS KEITH M 55/59   00:33:56 CANADA
15 367 LANGLOIS DIDIER M 55/59   00:33:59 FRANCE
16 354 WINDSOR MARK M 55/59   00:34:02 AUSTRALIA
17 369 ZAVBI ANDREJ M 55/59   00:34:03 SLOVENIA
18 390 SPIETH MARKUS M 55/59   00:34:03 GERMANY
19 377 DEMERS STÉPHANE M 55/59   00:34:04 CANADA
20 395 CLAES DIRK M 55/59   00:34:06 BELGIUM
21 347 THOMPSON WILLIAM M 55/59   00:34:18 UNITED STATES
22 398 KALODZITSA ALIAKSANDR M 55/59   00:34:18 BELARUS
23 378 ADAM MARC M 55/59   00:34:20 CANADA
24 358 BORNAK MICHAEL M 55/59   00:34:32 DENMARK
25 373 COLLANDER MARTIN M 55/59   00:34:34 SWEDEN
26 389 CROSS MICHAEL M 55/59   00:34:39 UNITED KINGDOM
27 397 AMIRAKHORI BIJAN M 55/59   00:34:47 IRAN
28 362 SAFFO LADISLAV M 55/59   00:34:58 SLOVAKIA
29 385 HEATHFIELD JEREMY M 55/59   00:34:59 NEW ZEALAND
30 371 SOLER DIEGO M 55/59 GUIDON SPORTIF SÉTOIS 00:35:05 FRANCE
31 342 THIMISTER JEAN MICHEL M 55/59   00:35:18 BELGIUM
32 345 PINTO JOAO PEDRO M 55/59   00:35:19 PORTUGAL
33 341 BRADFIELD GEORGE M 55/59   00:35:26 NEW ZEALAND
34 370 AVIL MARK M 55/59   00:35:36 UNITED KINGDOM
35 394 GARLAND MURRAY M 55/59   00:35:39 NEW ZEALAND
36 386 GABRIJELCIC WALTER M 55/59   00:35:42 SWEDEN
37 384 CICULI MAURO M 55/59   00:35:53 ITALY
38 375 PUCCIANTI CHRISTOPHE M 55/59   00:35:57 FRANCE
39 351 NEVILLE MARTIN M 55/59   00:35:59 UNITED KINGDOM
40 355 SANDERS MARK M 55/59   00:35:59 UNITED KINGDOM
41 376 RIDER PAUL M 55/59   00:36:08 UNITED KINGDOM
42 392 GOFFELMEYER DIDIER M 55/59   00:36:14 FRANCE
43 356 SIATRAVANIS ALEXANDROS M 55/59   00:36:16 GREECE
44 348 ALBREKTSEN HENRIK M 55/59   00:36:40 DENMARK
45 391 LAIDMAN PAUL M 55/59   00:36:49 AUSTRALIA
46 349 GARCIA JAVIER M 55/59   00:36:55 MEXICO
47 357 GORYACHEV VIACHESLAV M 55/59   00:37:03 RUSSIA
48 374 CRABTREE MATTHEW M 55/59   00:37:04 UNITED KINGDOM
49 380 JOHNSON MICHAEL M 55/59   00:37:13 AUSTRALIA
50 365 RUBEN TINOCO M 55/59   00:37:19 MEXICO

Aucun commentaires pour le moment, donnez votre avis, vos impressions avant, pendant! et après la course

Déjà membre? Identifiez-vous pour commenter l'épreuve ou créer un compte